User: anonymous   Login
Location: Unspecified
(0.0000°N, 0.0000°E)
Time: 05:26:02
(UTC+00:00)
Language:

N. Korean satellite - Orbit

View from above orbital plane
View from above orbital plane
View from above satellite
View from above satellite

Ground track
Ground track

The orbit data is extracted from the following two-line orbital elements,

1 39026U 12072A   17117.95665800 +.00002432 +00000-0 +97282-4 0  9991
2 39026 097.2259 137.5168 0040526 357.6634 002.4408 15.25276202242275
Epoch (UTC): 27 April 2017 22:57:35
Eccentricity: 0.0040526
inclination: 97.2259°
perigee height: 462 km
apogee height: 518 km
right ascension of ascending node: 137.5168°
argument of perigee: 357.6634°
revolutions per day: 15.25276202
mean anomaly at epoch: 2.4408°
orbit number at epoch: 24227

The dashed part of the orbit path shows where the satellite is in the earth's shadow,  

DLR